{"data":{"norad_id":63796,"epoch":"2026-05-24T21:19:29.654688Z","epoch_age_seconds":81860,"freshness":"FRESH","line1":"1 63796U 25091X   26144.88853767  .00019982  00000+0  73332-3 0  9996","line2":"2 63796  43.0008 342.3835 0001323 272.8724  87.1976 15.27595650 60602","mean_motion":15.2759565,"eccentricity":0.0001323,"inclination_deg":43.0008,"raan_deg":342.3835,"arg_perigee_deg":272.8724,"mean_anomaly_deg":87.1976,"bstar":0.00073332,"rev_number":6060,"period_min":94.265782964229,"perigee_km":482.09450598892,"apogee_km":483.90996343042,"semimajor_km":6861.1392347097,"source":"CELESTRAK","updated_at":"2026-05-25T13:38:20.137245Z"}}